Back to catalog

STARLINK-11584

AliveCommunicationsVLEO
NORAD 63106·PAYLOAD·🇺🇸 United States

Launched Feb 27, 2025 from Cape Canaveral Space Force Station

Loading…

Next Passes (next 24 hours)

TLE

FreshSource: CelesTrak SupGP

Epoch: Sep 14, 2026, 15:02 UTC

1 63106C 25039C   26257.62687500 -.00016997  00000+0 -13210-3 0  2571
2 63106  43.0007 178.3544 0001707 258.7760 198.9302 15.70831285    17

Track STARLINK-11584 in real time with AllMySat

Download on the App Store